Livermore, CA

7:59 AM PST on December 17, 2017 (GMT -0800)
Livermore Municipal

Weather History for KLVK - May, 2014

Change the Weather History Date:

Monday, May 26, 2014

  Actual Average Record
Temperature  
Mean Temperature 72 °F 64 °F  
Max Temperature 90 °F 77 °F 103 °F (1951)
Min Temperature 54 °F 51 °F 37 °F (1953)
Degree Days  
Heating Degree Days 0 3  
Month to date heating degree days 34 113  
Since 1 July heating degree days 1891 2735  
Cooling Degree Days 7 2  
Month to date cooling degree days 95 38  
Year to date cooling degree days 114 47  
Growing Degree Days 22 (Base 50)    
Moisture  
Dew Point 47 °F    
Average Humidity 48    
Maximum Humidity 72    
Minimum Humidity 24    
Precipitation  
Precipitation 0.00 in 0.01 in 0.22 in (1934)
Month to date precipitation T 0.57  
Year to date precipitation 4.88 9.81  
Since 1 July precipitation 7.26  
Sea Level Pressure  
Sea Level Pressure 29.96 in    
Wind  
Wind Speed 8 mph (West)    
Max Wind Speed 20 mph    
Max Gust Speed 23 mph    
Visibility 10 miles    
Events      
T = Trace of Precipitation, MM = Missing Value Source: NWS Daily Summary

Daily Weather History Graph

Daily Weather History Graph

Search for Another Location

Airport or City:

Trip Planner

Search our weather history database for the weather conditions in past years. The results will help you decide how hot, cold, wet, or windy it might be!

Date:

Astronomy

May. 26, 2014 Rise Set
Actual Time 5:49 AM PDT 8:19 PM PDT
Civil Twilight 5:19 AM PDT 8:49 PM PDT
Nautical Twilight 4:42 AM PDT 9:26 PM PDT
Astronomical Twilight 4:00 AM PDT 10:08 PM PDT
Moon 4:32 AM PDT (5/26) 6:29 PM PDT (5/26)
Length of Visible Light 15h 29m
Length of Day
14h 29m
Waning Crescent, 4% of the Moon is Illuminated
May 26
Waning Crescent
May 28
New
Jun 5
First Quarter
Jun 12
Full
Jun 19
Last Quarter

Hourly Weather History & Observations

Time (PDT) Temp. Dew Point Humidity Pressure Visibility Wind Dir Wind Speed Gust Speed Precip Events Conditions
12:53 AM 61.0 °F 46.9 °F 60% 29.94 in 10.0 mi West 8.1 mph - N/A   Clear
1:53 AM 60.1 °F 46.9 °F 62% 29.94 in 10.0 mi WNW 6.9 mph - N/A   Clear
2:53 AM 55.9 °F 46.9 °F 72% 29.94 in 10.0 mi West 4.6 mph - N/A   Clear
3:53 AM 57.9 °F 46.0 °F 65% 29.94 in 10.0 mi NW 6.9 mph - N/A   Clear
5:53 AM 55.9 °F 46.0 °F 69% 29.96 in 10.0 mi WNW 3.5 mph - N/A   Clear
6:53 AM 57.0 °F 46.0 °F 67% 29.98 in 10.0 mi Calm Calm - N/A   Clear
7:53 AM 62.1 °F 46.0 °F 56% 29.99 in 10.0 mi Calm Calm - N/A   Clear
8:53 AM 66.9 °F 46.9 °F 49% 30.00 in 10.0 mi Calm Calm - N/A   Clear
9:53 AM 73.0 °F 46.0 °F 38% 30.00 in 10.0 mi Variable 4.6 mph - N/A   Clear
10:53 AM 79.0 °F 46.0 °F 31% 29.99 in 10.0 mi WNW 4.6 mph - N/A   Clear
12:53 PM 84.9 °F 46.9 °F 27% 29.97 in 10.0 mi Variable 4.6 mph - N/A   Clear
1:53 PM 89.1 °F 48.9 °F 25% 29.96 in 10.0 mi West 11.5 mph - N/A   Clear
2:53 PM 88.0 °F 46.0 °F 23% 29.95 in 10.0 mi West 16.1 mph - N/A   Clear
3:53 PM 88.0 °F 48.9 °F 26% 29.95 in 10.0 mi WNW 15.0 mph - N/A   Clear
4:53 PM 86.0 °F 46.9 °F 26% 29.94 in 10.0 mi WNW 13.8 mph - N/A   Clear
5:53 PM 81.0 °F 51.1 °F 35% 29.94 in 10.0 mi West 15.0 mph - N/A   Clear
6:53 PM 77.0 °F 51.1 °F 40% 29.94 in 10.0 mi SW 8.1 mph - N/A   Clear
7:53 PM 71.1 °F 50.0 °F 47% 29.95 in 10.0 mi South 15.0 mph - N/A   Clear
8:53 PM 66.0 °F 48.0 °F 52% 29.96 in 10.0 mi South 10.4 mph - N/A   Clear
9:53 PM 64.9 °F 44.1 °F 47% 29.99 in 10.0 mi South 8.1 mph - N/A   Clear
10:53 PM 63.0 °F 41.0 °F 45% 30.00 in 10.0 mi SSW 9.2 mph - N/A   Clear
11:53 PM 63.0 °F 39.9 °F 43% 30.00 in 10.0 mi WSW 6.9 mph - N/A   Clear